[[{"header":{"parameterUnit":"m.s-1","parameterCategory":1,"la1":30.2991,"la2":30.254,"lo1":-89.0895,"lo2":-89.0444,"dy":0.0017,"dx":0.0017,"nx":28,"ny":28,"refTime":"2023-09-28T09:00:00:Z","depth":0,"parameterNumber":2,"parameterNumberName":"U-component_of_WINDS"},"data":[0,0,0,0,0,0,0,0,0,0,0,0,0,0,0,0,0,0,0,0,0,0,0,0,0,0,0,0,0,0,0,0,0,0,0,0,0,0,0,0,0,0,0,0,0,0,0,0,0,0,0,0,0,0,0,0,0,0,-2.3089,-2.309,0,-2.3142,-2.3143,-2.3144,-2.3096,-2.3094,-2.3092,-2.309,-2.3142,-2.3145,-2.3148,0,0,0,0,0,0,0,0,0,0,0,0,0,-2.2945,-2.2948,-2.3089,-2.309,-2.3091,-2.3142,-2.3143,-2.3144,-2.3096,-2.3094,-2.3091,-2.3089,-2.3141,-2.3145,-2.3149,0,0,0,0,0,0,0,0,0,0,0,0,0,-2.3004,-2.2949,-2.3089,-2.3073,-2.3072,-2.3142,-2.3143,-2.3144,-2.3096,-2.3094,-2.3091,-2.3088,-2.314,-2.3144,-2.3149,-2.3237,0,0,-2.3164,-2.3166,0,0,0,0,0,0,0,0,-2.3,-2.3009,-2.3075,-2.3074,-2.3073,-2.3109,-2.3111,-2.3175,-2.3097,-2.3087,-2.309,-2.3086,-2.3133,-2.3139,-2.3155,-2.324,-2.3242,-2.3164,-2.3167,-2.3169,-2.3171,0,0,0,0,0,0,0,-2.2996,-2.3006,-2.311,-2.3076,-2.3075,-2.3063,-2.3068,-2.3123,-2.3126,-2.3088,-2.3084,-2.3092,-2.3132,-2.315,-2.3156,-2.3243,-2.3164,-2.3168,-2.3171,-2.3173,-2.3402,-2.3405,0,0,0,0,0,0,-2.2994,-2.3003,-2.3108,-2.3112,-2.3029,-2.3068,-2.3073,-2.3101,-2.3125,-2.3126,-2.3094,-2.3089,-2.3144,-2.315,-2.3157,-2.3261,-2.3169,-2.3174,-2.3176,-2.3399,-2.3403,-2.3406,0,0,0,0,0,0,-2.2991,-2.3004,-2.3106,-2.3057,-2.3069,-2.3073,-2.3104,-2.3103,-2.3121,-2.313,-2.313,-2.3112,-2.3142,-2.3151,-2.3218,-2.3263,-2.3176,-2.318,-2.3395,-2.34,-2.3405,-2.3471,0,0,0,0,0,0,-2.2987,-2.3003,-2.3037,-2.3058,-2.3072,-2.3166,-2.3107,-2.3107,-2.313,-2.3124,-2.3147,-2.3148,-2.314,-2.3211,-2.3223,-2.3268,-2.3184,-2.3391,-2.3397,-2.3403,-2.3464,-2.3477,-2.3488,0,0,0,0,0,-2.2982,-2.3053,-2.3039,-2.3052,-2.3114,-2.3169,-2.3177,-2.3167,-2.3134,-2.3167,-2.3173,-2.3147,-2.3256,-2.3218,-2.3231,-2.3278,-2.3388,-2.3396,-2.3403,-2.3459,-2.3475,-2.3488,0,0,0,0,0,0,-2.3036,-2.3055,-2.304,-2.312,-2.3143,-2.3161,-2.3203,-2.3184,-2.3217,-2.321,-2.3196,-2.3202,-2.3273,-2.3282,-2.324,-2.3365,-2.3317,-2.3327,-2.3355,-2.337,-2.3382,-2.3377,-2.3188,0,0,0,0,0,-2.3058,-2.3101,-2.3116,-2.3185,-2.3197,-2.3199,-2.3222,-2.3213,-2.3236,-2.3246,-2.3256,-2.328,-2.3319,-2.3345,-2.3382,-2.3466,-2.347,-2.3505,-2.3517,-2.3527,-2.3535,-2.358,-2.3595,-2.343,-2.343,-2.343,0,0,-2.3102,-2.3118,-2.3146,-2.3196,-2.3213,-2.3258,-2.3207,-2.3257,-2.329,-2.3253,-2.3317,-2.3326,-2.3351,-2.3427,-2.3461,-2.3437,-2.3582,-2.3536,-2.3543,-2.3546,-2.3589,-2.3604,-2.3618,-2.3435,-2.3434,-2.3433,0,0,-2.3205,-2.3222,-2.3281,-2.3299,-2.3327,-2.3327,-2.3341,-2.3363,-2.3367,-2.3432,-2.3405,-2.3444,-2.3513,-2.3532,-2.355,-2.3662,-2.3639,-2.3675,-2.3736,-2.3779,-2.3792,-2.3804,-2.3843,-2.3857,-2.3684,-2.3684,-2.3684,0,-2.3255,-2.3323,-2.3313,-2.3365,-2.3388,-2.3358,-2.3418,-2.3436,-2.3474,-2.3489,-2.3463,-2.3549,-2.3564,-2.3643,-2.3671,-2.3687,-2.3703,-2.3671,-2.3792,-2.3803,-2.3813,-2.385,-2.3865,-2.3688,-2.3687,-2.3687,-2.3687,0,-2.3384,-2.3431,-2.3476,-2.3514,-2.3541,-2.3597,-2.3595,-2.3624,-2.3613,-2.3617,-2.3683,-2.37,-2.374,-2.3758,-2.3748,-2.3837,-2.3821,-2.3794,-2.3745,-2.3833,-2.3868,-2.3882,-2.3694,-2.3692,-2.3691,-2.369,0,0,-2.352,-2.3553,-2.357,-2.3587,-2.3615,-2.3651,-2.3705,-2.3745,-2.377,-2.3798,-2.3842,-2.3902,-2.3877,-2.3898,-2.389,-2.3928,-2.4015,-2.3896,-2.3896,-2.3916,-2.4114,-2.4133,-2.415,-2.4001,-2.4004,-2.4006,-2.4111,0,-2.3623,-2.3718,-2.3712,-2.3801,-2.3844,-2.3817,-2.3864,-2.3887,-2.3892,-2.3929,-2.3934,-2.3976,-2.394,-2.3953,-2.399,-2.3997,-2.4054,-2.3989,-2.4041,-2.4043,-2.4034,-2.4168,-2.4189,-2.4288,-2.4125,-2.4127,-2.4129,0,-2.3756,-2.3789,-2.3882,-2.3905,-2.3923,-2.3965,-2.4001,-2.4038,-2.4063,-2.4064,-2.4088,-2.4074,-2.4128,-2.408,-2.4154,-2.411,-2.4131,-2.4138,-2.4142,-2.4145,-2.409,-2.4174,-2.4319,-2.4333,-2.415,-2.4148,-2.4147,0,-2.3845,-2.3913,-2.3977,-2.3993,-2.4021,-2.4051,-2.4064,-2.4087,-2.4111,-2.4143,-2.4159,-2.4196,-2.4217,-2.4246,-2.4242,-2.4207,-2.4318,-2.4269,-2.4319,-2.4319,-2.4342,-2.434,-2.4491,-2.4358,-2.4358,-2.4358,-2.4357,0,-2.396,-2.4018,-2.4018,-2.4057,-2.4121,-2.4114,-2.4177,-2.4187,-2.4207,-2.4248,-2.4227,-2.4266,-2.4259,-2.4297,-2.4295,-2.4356,-2.4366,-2.4368,-2.4366,-2.4369,-2.4368,-2.4381,-2.4374,-2.4362,-2.4361,-2.436,-2.4359,0,-2.4069,-2.4071,-2.414,-2.4161,-2.4168,-2.4215,-2.4233,-2.427,-2.4274,-2.4326,-2.4337,-2.4344,-2.4388,-2.4387,-2.4438,-2.4436,-2.4511,-2.4502,-2.4503,-2.4501,-2.455,-2.4545,-2.4714,-2.4735,-2.4589,-2.4591,-2.4592,0,-2.4141,-2.4185,-2.4212,-2.4238,-2.4254,-2.4296,-2.4321,-2.4316,-2.4343,-2.4375,-2.4409,-2.4451,-2.4485,-2.4557,-2.4566,-2.4604,-2.4595,-2.4652,-2.4601,-2.4602,-2.4595,-2.4592,-2.4596,-2.4661,-2.4663,-2.4664,-2.4665,0,-2.4269,-2.4269,-2.4306,-2.4345,-2.4376,-2.4406,-2.4433,-2.4456,-2.4453,-2.4485,-2.453,-2.4557,-2.4609,-2.4651,-2.4688,-2.4701,-2.4683,-2.4682,-2.4695,-2.4697,-2.4696,-2.4696,-2.4529,-2.4677,-2.4676,-2.4675,-2.4674,-2.4674,-2.4362,-2.44,-2.4425,-2.4467,-2.4488,-2.4514,-2.455,-2.4559,-2.4597,-2.464,-2.4634,-2.4685,-2.4709,-2.4758,-2.4774,-2.4813,-2.4794,-2.4813,-2.4818,-2.4823,-2.4828,-2.4691,-2.482,-2.482,-2.482,-2.4819,-2.4819,0,-2.4488,-2.4503,-2.4542,-2.4582,-2.4616,-2.4597,-2.4626,-2.4656,-2.4701,-2.4725,-2.4759,-2.4812,-2.4853,-2.4866,-2.4906,-2.4935,-2.4928,-2.4946,-2.4943,-2.4946,-2.4844,-2.4828,-2.4951,-2.4951,-2.4951,-2.4951,-2.4951,-2.4951,-2.4557,-2.462,-2.4623,-2.4696,-2.471,-2.476,-2.4779,-2.4803,-2.4823,-2.4883,-2.4917,-2.4926,-2.4945,-2.4987,-2.5024,-2.5027,-2.5042,-2.5063,-2.5062,-2.4966,-2.4953,-2.494,-2.4925,-2.5067,-2.5067,-2.5161,-2.5162,-2.5163]},{"header":{"parameterUnit":"m.s-1","parameterCategory":1,"la1":30.2991,"la2":30.254,"lo1":-89.0895,"lo2":-89.0444,"dy":0.0017,"dx":0.0017,"nx":28,"ny":28,"refTime":"2023-09-28T09:00:00:Z","depth":0,"parameterNumber":3,"parameterNumberName":"V-component_of_WINDS"},"data":[0,0,0,0,0,0,0,0,0,0,0,0,0,0,0,0,0,0,0,0,0,0,0,0,0,0,0,0,0,0,0,0,0,0,0,0,0,0,0,0,0,0,0,0,0,0,0,0,0,0,0,0,0,0,0,0,0,0,1.1648,1.1648,0,1.1642,1.1642,1.1642,1.1627,1.1627,1.1626,1.1626,1.162,1.162,1.162,0,0,0,0,0,0,0,0,0,0,0,0,0,1.1647,1.1647,1.1648,1.1648,1.1648,1.1642,1.1642,1.1642,1.1627,1.1627,1.1626,1.1626,1.162,1.162,1.162,0,0,0,0,0,0,0,0,0,0,0,0,0,1.1645,1.1647,1.1648,1.164,1.1639,1.1642,1.1642,1.1641,1.1627,1.1627,1.1626,1.1626,1.162,1.162,1.162,1.1631,0,0,1.1621,1.1621,0,0,0,0,0,0,0,0,1.1645,1.1645,1.1641,1.164,1.1639,1.1635,1.1639,1.1638,1.1627,1.1632,1.1626,1.1626,1.1625,1.1625,1.1625,1.163,1.163,1.1621,1.1621,1.1621,1.1621,0,0,0,0,0,0,0,1.1645,1.1645,1.1645,1.1641,1.164,1.1636,1.1636,1.1639,1.1631,1.1631,1.163,1.163,1.1625,1.1625,1.1625,1.163,1.1621,1.1621,1.1621,1.1621,1.1644,1.1644,0,0,0,0,0,0,1.1646,1.1645,1.1646,1.1645,1.1641,1.1637,1.1636,1.1637,1.1631,1.163,1.163,1.1629,1.1625,1.1624,1.1624,1.1636,1.1621,1.1621,1.1621,1.1643,1.1644,1.1645,0,0,0,0,0,0,1.1646,1.1647,1.1646,1.1645,1.1645,1.1637,1.1638,1.1637,1.1637,1.163,1.1629,1.1631,1.1624,1.1624,1.1629,1.1636,1.1621,1.1622,1.1643,1.1644,1.1644,1.166,0,0,0,0,0,0,1.1646,1.1647,1.165,1.1645,1.1645,1.1651,1.1639,1.1637,1.1637,1.1636,1.1631,1.163,1.1624,1.1629,1.1629,1.1636,1.1622,1.1642,1.1643,1.1644,1.1659,1.1661,1.1663,0,0,0,0,0,1.1647,1.1655,1.1651,1.1651,1.1649,1.1651,1.1651,1.1644,1.1638,1.1641,1.1637,1.163,1.1635,1.163,1.163,1.1637,1.1642,1.1643,1.1644,1.1658,1.1661,1.1663,0,0,0,0,0,0,1.1661,1.1654,1.1649,1.1656,1.1654,1.1649,1.1653,1.1647,1.1647,1.1646,1.1637,1.1636,1.1642,1.164,1.1634,1.1646,1.1637,1.1638,1.1648,1.165,1.1652,1.1653,1.1622,0,0,0,0,0,1.1665,1.1667,1.1661,1.1668,1.1667,1.166,1.1661,1.1656,1.1653,1.1653,1.1649,1.1647,1.1648,1.1649,1.165,1.1658,1.1657,1.1663,1.1665,1.1667,1.1668,1.1673,1.1675,1.1648,1.1648,1.1648,0,0,1.1674,1.167,1.1672,1.1671,1.1669,1.1671,1.166,1.1663,1.1665,1.1653,1.1658,1.1655,1.1652,1.1659,1.1662,1.1657,1.1675,1.1668,1.167,1.167,1.1674,1.1677,1.1679,1.1649,1.1649,1.1649,0,0,1.169,1.1688,1.1693,1.1692,1.1689,1.1684,1.1685,1.1681,1.1678,1.1683,1.1674,1.1676,1.1678,1.1677,1.1677,1.1693,1.1686,1.1694,1.1705,1.1709,1.1712,1.1713,1.1719,1.1722,1.1695,1.1695,1.1695,0,1.1701,1.1705,1.1697,1.1701,1.17,1.169,1.1696,1.1694,1.1692,1.1692,1.1687,1.169,1.1687,1.1694,1.1698,1.1698,1.1699,1.1694,1.1712,1.1714,1.1715,1.1721,1.1723,1.1696,1.1696,1.1695,1.1695,0,1.1718,1.1721,1.1726,1.1723,1.1724,1.1728,1.1722,1.1723,1.1718,1.1714,1.1719,1.1715,1.1715,1.1717,1.1712,1.1723,1.172,1.1713,1.1704,1.1719,1.1724,1.1726,1.1697,1.1697,1.1696,1.1696,0,0,1.1744,1.1738,1.174,1.1739,1.1735,1.1736,1.1741,1.1741,1.1742,1.1741,1.1744,1.1747,1.1741,1.174,1.1735,1.1739,1.1752,1.1732,1.1732,1.1736,1.1765,1.177,1.1772,1.1748,1.1748,1.1749,1.1765,0,1.176,1.1767,1.176,1.1768,1.1771,1.1761,1.1765,1.1763,1.1759,1.1761,1.1757,1.1759,1.1751,1.175,1.1754,1.175,1.1758,1.1749,1.1751,1.1752,1.1752,1.1775,1.178,1.1796,1.1767,1.1767,1.1768,0,1.1779,1.1779,1.1787,1.1783,1.1784,1.1787,1.1787,1.1788,1.1786,1.1783,1.1783,1.1777,1.1781,1.1772,1.1777,1.1771,1.1772,1.177,1.177,1.1771,1.1761,1.1776,1.1801,1.1803,1.1771,1.177,1.177,0,1.1797,1.1799,1.1804,1.1804,1.1799,1.1802,1.18,1.1797,1.1797,1.1797,1.1797,1.1798,1.1798,1.1798,1.1792,1.1786,1.1799,1.1789,1.1796,1.1797,1.18,1.18,1.1825,1.18,1.18,1.18,1.18,0,1.1816,1.1821,1.1812,1.1816,1.1822,1.1814,1.182,1.1818,1.1815,1.1818,1.181,1.1812,1.1804,1.1806,1.1801,1.1807,1.1807,1.1805,1.1804,1.1806,1.1806,1.1806,1.1805,1.18,1.18,1.18,1.18,0,1.1837,1.1831,1.1837,1.1832,1.183,1.1835,1.1831,1.1834,1.183,1.1833,1.1834,1.1828,1.1829,1.1823,1.1824,1.1821,1.1829,1.1826,1.183,1.1829,1.1837,1.1837,1.1864,1.1867,1.184,1.184,1.184,0,1.1849,1.1854,1.1849,1.185,1.1849,1.1851,1.1851,1.1844,1.1845,1.1843,1.1846,1.1847,1.1848,1.1851,1.1847,1.1848,1.1845,1.1854,1.1845,1.1847,1.1845,1.1845,1.1845,1.1856,1.1856,1.1857,1.1857,0,1.1872,1.1869,1.187,1.187,1.1871,1.187,1.187,1.1871,1.1863,1.1865,1.1866,1.1867,1.1868,1.1869,1.1869,1.1867,1.1861,1.186,1.1862,1.1864,1.1866,1.1865,1.1836,1.1859,1.1859,1.1859,1.1859,1.1859,1.1889,1.1893,1.189,1.1891,1.189,1.1889,1.1892,1.1888,1.189,1.189,1.1886,1.1888,1.1886,1.1885,1.1884,1.1886,1.1882,1.1885,1.1885,1.1886,1.1888,1.1866,1.1886,1.1886,1.1886,1.1886,1.1886,0,1.1912,1.1909,1.1911,1.191,1.1911,1.1905,1.1904,1.1905,1.1908,1.1906,1.1907,1.1909,1.191,1.1906,1.1907,1.191,1.1907,1.191,1.191,1.191,1.1891,1.189,1.1912,1.1912,1.1912,1.1912,1.1912,1.1912,1.1923,1.1929,1.1925,1.193,1.1928,1.193,1.193,1.193,1.1929,1.1931,1.1933,1.193,1.1927,1.1928,1.1929,1.1927,1.1928,1.1933,1.1931,1.1913,1.1911,1.1908,1.1907,1.1933,1.1933,1.1949,1.1949,1.1949]}]]